Flag for Germany Weather past 2 weeks in Unna, North Rhine-Westphalia, Germany

Now
45 °F

Passing clouds.


Feels Like: 41 °F
Forecast: 50 / 62 °F
Wind: 7 mph from Southwest

Location: Dortmund / Wickede

Current Time: May 27, 2015 at 5:47:48 AM

Latest Report: May 27, 2015 at 5:20 AM


Visibility: N/A

Pressure: 30.24 "Hg

Humidity: 87%

Dew point: 41 °F

Location of UnnaLocation

Historic Weather in Unna — Graph

°F

Unna temperature yesterday

Maximum temperature yesterday: 57 °F (at 6:50 PM)
Minimum temperature yesterday: 48 °F (at 5:20 AM)
Average temperature yesterday: 52 °F

Past Weeks' High & Low Weather Summary

 TemperatureHumidityPressure
High73 °F (May 12, 11:20 AM)94% (May 25, 11:50 AM)30.33 "Hg (May 25, 11:50 AM)
Low39 °F (May 14, 5:20 AM)32% (May 13, 3:50 PM)29.62 "Hg (May 18, 7:20 PM)
Average56 °F60%30.04 "Hg
* Reported May 11 10:20 PM — May 26 10:50 PM, Unna, Weather by CustomWeather, © 2015

Note: Actual official high and low records may vary slightly from our data, if they occured in-between our weather recording intervals... More about our weather records

Advertising

Unna weather history for previous 24 hours

 ConditionsComfort  
Time TempWeatherWind HumidityBarometerVisibility
10:50 PM
Tue, May 26
50 °FPassing clouds.7 mph67%30.21 "HgN/A
10:20 PM50 °FScattered clouds.7 mph67%30.21 "HgN/A
9:50 PM52 °FPassing clouds.9 mph62%30.18 "HgN/A
9:20 PM52 °FScattered clouds.5 mph62%30.18 "HgN/A
8:50 PM52 °FPassing clouds.8 mph58%30.18 "HgN/A
8:20 PM54 °FPassing clouds.10 mph54%30.18 "HgN/A
7:50 PM55 °FSunny.13 mph51%30.15 "Hg10 mi
7:20 PM55 °FScattered clouds.12 mph51%30.15 "HgN/A
6:50 PM57 °FPartly sunny.13 mph48%30.15 "HgN/A
6:20 PM55 °FBroken clouds.7 mph51%30.15 "HgN/A
5:50 PM55 °FSunny.13 mph47%30.12 "Hg10 mi
5:20 PM55 °FPartly sunny.12 mph55%30.12 "HgN/A
4:50 PM55 °FPartly sunny.9 mph51%30.12 "HgN/A
4:20 PM55 °FBroken clouds.15 mph51%30.12 "HgN/A
3:50 PM54 °FPartly sunny.10 mph58%30.12 "HgN/A
3:20 PM54 °FPartly sunny.9 mph58%30.12 "HgN/A
2:50 PM54 °FPartly sunny.9 mph58%30.12 "HgN/A
2:20 PM52 °FScattered showers. Clear.10 mph58%30.12 "HgN/A
1:50 PM54 °FScattered showers. Partly sunny.10 mph63%30.12 "HgN/A
1:20 PM50 °FScattered showers. Partly sunny.13 mph71%30.12 "HgN/A
12:50 PM50 °FSprinkles. Partly sunny.15 mph71%30.12 "HgN/A
12:20 PM54 °FScattered showers. Partly sunny.10 mph58%30.09 "HgN/A
11:50 AM54 °FPartly sunny.12 mph54%30.09 "HgN/A
11:20 AM54 °FPartly sunny.12 mph58%30.09 "HgN/A
10:50 AM54 °FBroken clouds.10 mph58%30.09 "HgN/A
10:20 AM52 °FPartly sunny.12 mph67%30.09 "HgN/A
9:50 AM52 °FPartly sunny.10 mph62%30.09 "HgN/A
9:20 AM52 °FPartly sunny.9 mph67%30.09 "HgN/A
8:50 AM50 °FBroken clouds.8 mph71%30.09 "HgN/A
8:20 AM50 °FPartly sunny.7 mph76%30.09 "HgN/A
7:50 AM48 °FScattered clouds.7 mph76%30.07 "HgN/A
7:20 AM48 °FScattered clouds.9 mph76%30.07 "HgN/A
6:50 AM48 °FScattered clouds.8 mph76%30.07 "HgN/A
6:20 AM48 °FClear.6 mph76%30.07 "Hg10 mi
5:20 AM48 °FPassing clouds.7 mph76%30.04 "HgN/A
Weather by CustomWeather, © 2015

See weather overviewHow to use our weather pages